Weather in Ust'-Buzulukskaya

Russia / Volgograd Oblast     50°10′59″N   42°09′32″E
temp.,
°C
wind,
m/s
gust,
m/s
humid.,
%
clouds,
%
prec.,
mm/h
press.,
hPa
HPBL,
m
25 february, thu
thu2500:00−15ssw357995 0.0 1039293
03:00−14ssw488098 0.0 1037309
06:00−13ssw5984100 0.1 1035406
09:00−11ssw6118499 0.1 1033446
12:00−9sw71086100 0.3 1030519
15:00−7sw61293100 1.2 1027547
18:00−5sw61392100 0.6 1024429
21:00−3wsw91593100 1.0 1021346
26 february, fri
fri2600:00−1w71394100 0.3 1019376
03:00+1w51197100 0.3 1019327
06:00+1w51198100 0.6 1018304
09:00+1w4999100 1.0 1019234
12:00+2w410100100 0.3 1018274
15:00+3w51199100 0.3 1017279
18:00+3wsw6149599 0.0 1015378
21:00+3w6149796 0.0 1014422
27 february, sat
sat2700:00+2w61395100 0.1 1012400
03:00+2w61394100 0.1 1011430
06:00+1w51194100 0.0 1009426
09:00+1w51194100 0.0 1009523
12:00+2w61197100 0.0 1008635
15:00+2wnw61197100 0.1 1009613
18:00+1w6119699 0.1 1008557
21:00+1w5119799 0.1 1009489
28 february, sun
sun2800:00+1wnw51097100 0.1 1008512
03:000wnw5109199 0.1 1009438
06:00−1nw389494 0.1 1010310
09:00−3n588493 0.3 1012559
12:00−3nnw567896 0.0 1014640
15:00−3n577798 0.0 1015686
18:00−4nnw5781100 0.0 1017698
21:00−5n5781100 0.1 1020706
1 march, mon
mon100:00−6n5782100 0.1 1021677
03:00−6nnw3683100 0.1 1022610
06:00−7n368798 0.0 1024547
09:00−6n478299 0.1 1026708
12:00−5nnw4676100 0.1 1027748
15:00−5nnw4674100 0.1 1028747
18:00−5nnw5778100 0.0 1029738
21:00−6nnw4581100 0.1 1030631